User: anonymous   Login
Location: Sungai Bunut
(2.6333°N, 113.7333°E)
Time: 19:24:21
(UTC+00:00)
Language:

USA 305 - Orbit

View from above orbital plane
View from above orbital plane
View from above satellite
View from above satellite

Ground track
Ground track

The orbit data is extracted from the following two-line orbital elements,

1 45873U 20046A   22014.23774700 0.00005000  00000-0  38994-3 0    02
2 45873  53.9772  68.1146 0002005 308.8182  51.1817 15.00720955    02
Epoch (UTC): 14 January 2022 05:42:21
Eccentricity: 0.0002005
inclination: 53.9772°
perigee height: 563 km
apogee height: 566 km
right ascension of ascending node: 68.1146°
argument of perigee: 308.8182°
revolutions per day: 15.00720955
mean anomaly at epoch: 51.1817°
orbit number at epoch: 0

The dashed part of the orbit path shows where the satellite is in the earth's shadow,  

DLR